TimeEST,TemperatureF,Dew PointF,Humidity,Sea Level PressureIn,VisibilityMPH,Wind Direction,Wind SpeedMPH,Gust SpeedMPH,PrecipitationIn,Events,Conditions,WindDirDegrees,DateUTC
12:53 AM,42.1,30.0,62,29.84,10.0,SSW,9.2,-,N/A,,Clear,210,2013-01-20 05:53:00
1:53 AM,43.0,30.0,60,29.81,10.0,SSW,13.8,-,N/A,,Clear,210,2013-01-20 06:53:00
2:53 AM,42.1,28.9,60,29.78,10.0,SSW,8.1,-,N/A,,Clear,210,2013-01-20 07:53:00
3:53 AM,42.1,28.9,60,29.74,10.0,SSW,11.5,-,N/A,,Clear,210,2013-01-20 08:53:00
4:53 AM,43.0,30.9,62,29.71,10.0,SSW,11.5,19.6,N/A,,Clear,210,2013-01-20 09:53:00
5:53 AM,41.0,30.9,67,29.67,10.0,SSW,11.5,21.9,N/A,,Clear,200,2013-01-20 10:53:00
6:53 AM,41.0,30.0,65,29.64,10.0,SSW,11.5,20.7,N/A,,Clear,210,2013-01-20 11:53:00
7:53 AM,42.1,30.0,62,29.62,10.0,SSW,13.8,-,N/A,,Clear,210,2013-01-20 12:53:00
8:53 AM,45.0,28.9,53,29.60,10.0,SW,18.4,25.3,N/A,,Clear,220,2013-01-20 13:53:00
9:53 AM,48.9,28.0,44,29.59,10.0,SW,17.3,31.1,N/A,,Clear,230,2013-01-20 14:53:00
10:53 AM,51.1,28.0,41,29.56,10.0,WSW,28.8,40.3,N/A,,Clear,240,2013-01-20 15:53:00
11:53 AM,54.0,28.0,37,29.51,10.0,WSW,23.0,33.4,N/A,,Clear,240,2013-01-20 16:53:00
12:53 PM,53.1,26.1,35,29.52,10.0,WSW,23.0,36.8,N/A,,Mostly Cloudy,250,2013-01-20 17:53:00
1:53 PM,50.0,27.0,41,29.55,10.0,West,18.4,32.2,N/A,,Overcast,280,2013-01-20 18:53:00
2:53 PM,46.0,27.0,47,29.59,10.0,West,13.8,29.9,N/A,,Scattered Clouds,280,2013-01-20 19:53:00
3:53 PM,46.0,21.0,37,29.62,10.0,West,16.1,24.2,N/A,,Clear,280,2013-01-20 20:53:00
4:53 PM,44.1,12.0,27,29.66,10.0,West,17.3,28.8,N/A,,Clear,280,2013-01-20 21:53:00
5:53 PM,39.0,14.0,36,29.73,10.0,WNW,21.9,29.9,N/A,,Clear,300,2013-01-20 22:53:00
6:53 PM,36.0,12.9,39,29.77,10.0,WNW,15.0,24.2,N/A,,Clear,290,2013-01-20 23:53:00
7:53 PM,34.0,10.0,37,29.80,10.0,West,9.2,29.9,N/A,,Clear,280,2013-01-21 00:53:00
8:53 PM,32.0,8.1,37,29.84,10.0,West,16.1,32.2,N/A,,Clear,280,2013-01-21 01:53:00
9:53 PM,30.0,8.1,40,29.86,10.0,West,11.5,-,N/A,,Clear,270,2013-01-21 02:53:00
10:53 PM,30.0,8.1,40,29.88,10.0,West,11.5,-,N/A,,Clear,280,2013-01-21 03:53:00
11:53 PM,28.9,10.0,45,29.89,10.0,West,18.4,27.6,N/A,,Partly Cloudy,280,2013-01-21 04:53:00